Location: Riverside
(39.1734°N, 77.8561°W)
Time: 02:01:49
(UTC+00:00)

Hubble Space Telescope - Visible Passes

Search period start: 20 November 2019 00:00
Search period end: 30 November 2019 00:00
Orbit: 536 x 540 km, 28.5° (Epoch: 17 November)

Date Brightness Start Highest point End Pass type
(mag) Time Alt. Az. Time Alt. Az. Time Alt. Az.
20 Nov 3.5 00:29:27 10° SW 00:30:01 12° SSW 00:30:01 12° SSW visible
20 Nov 3.3 22:39:50 10° S 22:41:01 11° SSE 22:42:11 10° SSE visible
21 Nov 3.2 00:18:39 10° SW 00:20:03 15° SSW 00:20:03 15° SSW visible
21 Nov 3.2 22:28:26 10° SSW 22:30:17 13° SSE 22:32:09 10° SE visible
22 Nov 3.0 00:07:54 10° SW 00:10:04 18° SSW 00:10:04 18° SSW visible
22 Nov 2.8 23:57:13 10° SW 00:00:05 18° S 00:00:07 18° S visible
23 Nov 2.8 23:46:33 10° SW 23:49:23 18° S 23:50:10 17° S visible
24 Nov 3.0 23:35:57 10° SW 23:38:42 17° S 23:40:16 14° SSE visible
25 Nov 3.2 23:25:24 10° SW 23:27:59 16° S 23:30:27 10° SSE visible
26 Nov 3.3 23:14:55 10° SW 23:17:16 15° S 23:19:38 10° SSE visible
27 Nov 3.4 23:04:32 10° SW 23:06:34 13° SSW 23:08:35 10° SSE visible
28 Nov 3.6 22:54:21 10° SW 22:55:50 12° SSW 22:57:19 10° S visible
